When you browse on this site, cookies collect data to enhance your experience and personalize the content and advertising you see.
Visit our Privacy Policy to learn more. By continuing to use the site, you agree to this use of cookies and data.
  • în România
  • Lista ţărilor
  • Pe 7 zile
  • Temperatura apei
  • Meteo pe hartă
  • Widget-uri
  • user-avatar
    Intrare

    Meteo pe oră la Kastornya

    Astăzi, 7 Iunie, Duminică

    Timp Temperatura Precipitaţii Vânt Presiune Umiditate
    00:00 +17°C° 0 mm 2 m/s 743 mmHg 88%
    01:00 +17°C° 0 mm 2 m/s 744 mmHg 90%
    02:00 +17°C° 0 mm 2 m/s 744 mmHg 91%
    03:00 +16°C° 0 mm 2 m/s 744 mmHg 92%
    04:00 +17°C° 0 mm 2 m/s 744 mmHg 93%
    05:00 +17°C° 0 mm 2 m/s 744 mmHg 94%
    06:00 +18°C° 0 mm 2 m/s 745 mmHg 95%
    07:00 +19°C° 0 mm 2 m/s 745 mmHg 91%
    08:00 +20°C° 0 mm 2 m/s 745 mmHg 87%
    09:00 +23°C° 0 mm 2 m/s 745 mmHg 84%
    10:00 +24°C° 0.6 mm 2 m/s 745 mmHg 80%
    11:00 +25°C° 0.6 mm 2 m/s 745 mmHg 76%
    12:00 +26°C° 0.6 mm 2 m/s 745 mmHg 72%
    13:00 +26°C° 0.9 mm 2 m/s 745 mmHg 70%
    14:00 +27°C° 0.9 mm 2 m/s 746 mmHg 69%
    15:00 +27°C° 0.9 mm 1 m/s 746 mmHg 67%
    16:00 +27°C° 0.1 mm 1 m/s 746 mmHg 68%
    17:00 +27°C° 0.1 mm 1 m/s 745 mmHg 69%
    18:00 +27°C° 0.1 mm 1 m/s 745 mmHg 70%
    19:00 +23°C° 0.1 mm 0 m/s 745 mmHg 74%
    20:00 +22°C° 0.1 mm 0 m/s 746 mmHg 79%
    21:00 +20°C° 0.1 mm 0 m/s 746 mmHg 84%
    22:00 +19°C° 0 mm 0 m/s 746 mmHg 85%
    23:00 +19°C° 0 mm 0 m/s 746 mmHg 86%

    Mâine, 8 Iunie, Luni

    Timp Temperatura Precipitaţii Vânt Presiune Umiditate
    00:00 +18°C° 0 mm 0 m/s 746 mmHg 87%
    01:00 +18°C° 0 mm 0 m/s 746 mmHg 87%
    02:00 +18°C° 0 mm 0 m/s 746 mmHg 88%
    03:00 +18°C° 0 mm 0 m/s 746 mmHg 89%
    04:00 +18°C° 0 mm 0 m/s 746 mmHg 88%
    05:00 +19°C° 0 mm 0 m/s 747 mmHg 87%
    06:00 +20°C° 0 mm 0 m/s 747 mmHg 87%
    07:00 +21°C° 0 mm 0 m/s 747 mmHg 83%
    08:00 +22°C° 0 mm 0 m/s 747 mmHg 80%
    09:00 +23°C° 0 mm 0 m/s 747 mmHg 77%
    10:00 +24°C° 0.2 mm 0 m/s 747 mmHg 73%
    11:00 +25°C° 0.2 mm 0 m/s 747 mmHg 69%
    12:00 +26°C° 0.2 mm 0 m/s 747 mmHg 65%
    13:00 +28°C° 0.4 mm 1 m/s 746 mmHg 65%
    14:00 +28°C° 0.4 mm 1 m/s 746 mmHg 64%
    15:00 +29°C° 0.4 mm 2 m/s 746 mmHg 64%
    16:00 +28°C° 0.2 mm 2 m/s 746 mmHg 68%
    17:00 +28°C° 0.2 mm 2 m/s 746 mmHg 73%
    18:00 +27°C° 0.2 mm 2 m/s 746 mmHg 78%
    19:00 +26°C° 0.1 mm 2 m/s 746 mmHg 82%
    20:00 +24°C° 0.1 mm 2 m/s 746 mmHg 86%
    21:00 +23°C° 0.1 mm 2 m/s 746 mmHg 90%
    22:00 +21°C° 0 mm 2 m/s 746 mmHg 92%
    23:00 +20°C° 0 mm 2 m/s 746 mmHg 94%

    Poimâine, 9 Iunie, Marţi

    Timp Temperatura Precipitaţii Vânt Presiune Umiditate
    00:00 +20°C° 0 mm 3 m/s 746 mmHg 95%
    01:00 +19°C° 0 mm 3 m/s 746 mmHg 96%
    02:00 +19°C° 0 mm 3 m/s 746 mmHg 96%
    03:00 +18°C° 0 mm 3 m/s 747 mmHg 96%
    04:00 +19°C° 0 mm 3 m/s 747 mmHg 95%
    05:00 +19°C° 0 mm 3 m/s 747 mmHg 93%
    06:00 +19°C° 0 mm 3 m/s 747 mmHg 92%
    07:00 +20°C° 0 mm 4 m/s 747 mmHg 88%
    08:00 +21°C° 0 mm 4 m/s 747 mmHg 85%
    09:00 +22°C° 0 mm 4 m/s 747 mmHg 81%
    10:00 +23°C° 0 mm 5 m/s 747 mmHg 78%
    11:00 +25°C° 0 mm 5 m/s 747 mmHg 75%
    12:00 +25°C° 0 mm 5 m/s 747 mmHg 72%
    13:00 +26°C° 0 mm 5 m/s 747 mmHg 72%
    14:00 +26°C° 0 mm 5 m/s 747 mmHg 71%
    15:00 +26°C° 0 mm 5 m/s 747 mmHg 71%
    16:00 +26°C° 0 mm 4 m/s 747 mmHg 73%
    17:00 +26°C° 0 mm 4 m/s 747 mmHg 76%
    18:00 +25°C° 0 mm 3 m/s 747 mmHg 78%
    19:00 +24°C° 0 mm 3 m/s 747 mmHg 82%
    20:00 +22°C° 0 mm 3 m/s 747 mmHg 87%
    21:00 +20°C° 0 mm 3 m/s 747 mmHg 91%
    22:00 +20°C° 0 mm 3 m/s 747 mmHg 92%
    23:00 +19°C° 0 mm 3 m/s 747 mmHg 93%

    10 Iunie, Miercuri

    Timp Temperatura Precipitaţii Vânt Presiune Umiditate
    00:00 +18°C° 0 mm 3 m/s 747 mmHg 94%
    01:00 +18°C° 0 mm 3 m/s 747 mmHg 95%
    02:00 +18°C° 0 mm 3 m/s 747 mmHg 95%
    03:00 +17°C° 0 mm 3 m/s 747 mmHg 96%
    04:00 +18°C° 0 mm 3 m/s 747 mmHg 95%
    05:00 +18°C° 0 mm 3 m/s 747 mmHg 94%
    06:00 +18°C° 0 mm 3 m/s 747 mmHg 93%
    07:00 +20°C° 0 mm 4 m/s 747 mmHg 90%
    08:00 +21°C° 0 mm 4 m/s 747 mmHg 86%
    09:00 +22°C° 0 mm 4 m/s 747 mmHg 82%
    10:00 +23°C° 0 mm 4 m/s 747 mmHg 80%
    11:00 +25°C° 0 mm 4 m/s 747 mmHg 77%
    12:00 +26°C° 0 mm 4 m/s 747 mmHg 74%
    13:00 +26°C° 0.2 mm 4 m/s 747 mmHg 74%
    14:00 +26°C° 0.2 mm 4 m/s 746 mmHg 74%
    15:00 +26°C° 0.2 mm 4 m/s 746 mmHg 74%
    16:00 +26°C° 0.3 mm 3 m/s 746 mmHg 76%
    17:00 +25°C° 0.3 mm 3 m/s 746 mmHg 78%
    18:00 +25°C° 0.3 mm 3 m/s 746 mmHg 80%
    19:00 +24°C° 0.1 mm 3 m/s 745 mmHg 84%
    20:00 +21°C° 0.1 mm 2 m/s 745 mmHg 87%
    21:00 +20°C° 0.1 mm 2 m/s 745 mmHg 91%
    22:00 +20°C° 0 mm 2 m/s 745 mmHg 92%
    23:00 +19°C° 0 mm 2 m/s 745 mmHg 92%

    11 Iunie, Joi

    Timp Temperatura Precipitaţii Vânt Presiune Umiditate
    00:00 +18°C° 0 mm 2 m/s 745 mmHg 93%
    01:00 +18°C° 0 mm 2 m/s 745 mmHg 93%
    02:00 +18°C° 0 mm 2 m/s 745 mmHg 94%
    03:00 +17°C° 0 mm 2 m/s 745 mmHg 94%
    04:00 +18°C° 0 mm 2 m/s 745 mmHg 94%
    05:00 +18°C° 0 mm 2 m/s 745 mmHg 93%
    06:00 +19°C° 0 mm 2 m/s 745 mmHg 93%
    07:00 +20°C° 0 mm 2 m/s 745 mmHg 89%
    08:00 +21°C° 0 mm 3 m/s 745 mmHg 85%
    09:00 +24°C° 0 mm 3 m/s 745 mmHg 81%
    10:00 +25°C° 0 mm 3 m/s 745 mmHg 77%
    11:00 +26°C° 0 mm 3 m/s 745 mmHg 73%
    12:00 +26°C° 0 mm 3 m/s 745 mmHg 69%
    13:00 +27°C° 0 mm 3 m/s 745 mmHg 68%
    14:00 +27°C° 0 mm 3 m/s 745 mmHg 67%
    15:00 +27°C° 0 mm 3 m/s 744 mmHg 66%
    16:00 +27°C° 0 mm 2 m/s 744 mmHg 69%
    17:00 +27°C° 0 mm 2 m/s 744 mmHg 72%
    18:00 +26°C° 0 mm 2 m/s 744 mmHg 75%
    19:00 +25°C° 0 mm 2 m/s 744 mmHg 78%
    20:00 +23°C° 0 mm 2 m/s 744 mmHg 82%
    21:00 +21°C° 0 mm 2 m/s 744 mmHg 86%
    22:00 +20°C° 0 mm 2 m/s 744 mmHg 88%
    23:00 +20°C° 0 mm 2 m/s 744 mmHg 89%

    12 Iunie, Vineri

    Timp Temperatura Precipitaţii Vânt Presiune Umiditate
    00:00 +19°C° 0 mm 2 m/s 744 mmHg 90%
    01:00 +19°C° 0 mm 2 m/s 744 mmHg 91%
    02:00 +18°C° 0 mm 2 m/s 744 mmHg 91%
    03:00 +18°C° 0 mm 2 m/s 743 mmHg 92%
    04:00 +18°C° 0 mm 2 m/s 743 mmHg 91%
    05:00 +19°C° 0 mm 2 m/s 743 mmHg 90%
    06:00 +19°C° 0 mm 2 m/s 743 mmHg 90%
    07:00 +21°C° 0 mm 2 m/s 743 mmHg 86%
    08:00 +22°C° 0 mm 3 m/s 744 mmHg 82%
    09:00 +25°C° 0 mm 3 m/s 744 mmHg 79%
    10:00 +26°C° 0 mm 3 m/s 744 mmHg 76%
    11:00 +26°C° 0 mm 3 m/s 744 mmHg 73%
    12:00 +27°C° 0 mm 4 m/s 744 mmHg 71%
    13:00 +27°C° 0 mm 4 m/s 743 mmHg 70%
    14:00 +28°C° 0 mm 4 m/s 743 mmHg 70%
    15:00 +28°C° 0 mm 4 m/s 743 mmHg 70%
    16:00 +28°C° 0.1 mm 3 m/s 743 mmHg 72%
    17:00 +27°C° 0.1 mm 3 m/s 742 mmHg 75%
    18:00 +27°C° 0.1 mm 3 m/s 742 mmHg 77%
    19:00 +26°C° 0.1 mm 3 m/s 742 mmHg 80%
    20:00 +24°C° 0.1 mm 2 m/s 743 mmHg 83%
    21:00 +23°C° 0.1 mm 2 m/s 743 mmHg 86%
    22:00 +21°C° 0 mm 2 m/s 743 mmHg 86%
    23:00 +20°C° 0 mm 2 m/s 743 mmHg 87%
    Arată mai mult